This is the latest recevied weather packets stored in our database for station/object JS2QVS-13. If no packets are shown the sender has not sent any weather packets the latest 10 day(s).
| Time | Temp. | Humidity | Pressure | Rain* | Wind** | Luminosity | Snow |
|---|---|---|---|---|---|---|---|
| 1777886261 | 17.78° C | 53% | 1003 hPa | 0 mm | - | - | - |
| 1777885663 | 17.78° C | 53% | 1002.8 hPa | 0 mm | - | - | - |
| 1777885063 | 17.78° C | 51% | 1002.8 hPa | 0 mm | - | - | - |
| 1777884463 | 18.33° C | 50% | 1002.6 hPa | 0 mm | - | - | - |
| 1777883863 | 18.89° C | 50% | 1002 hPa | 0 mm | - | - | - |
| 1777883262 | 19.44° C | 49% | 1001.7 hPa | 0 mm | - | - | - |
| 1777882662 | 20° C | 50% | 1001.2 hPa | 0 mm | - | - | - |
| 1777882062 | 20.56° C | 49% | 1000.9 hPa | 0 mm | - | - | - |
| 1777881462 | 21.11° C | 49% | 1000.7 hPa | 0 mm | - | - | - |
| 1777880862 | 21.11° C | 49% | 1000.4 hPa | 0 mm | - | - | - |
| 1777880263 | 21.11° C | 49% | 1000.2 hPa | 0 mm | - | - | - |
| 1777879663 | 21.67° C | 48% | 1000.1 hPa | 0 mm | - | - | - |
| 1777879063 | 22.22° C | 49% | 999.8 hPa | 0 mm | - | - | - |
| 1777878462 | 22.22° C | 49% | 999.6 hPa | 0 mm | - | - | - |
| 1777877862 | 22.22° C | 49% | 999.4 hPa | 0 mm | - | - | - |
| 1777877262 | 21.67° C | 47% | 999.2 hPa | 0 mm | - | - | - |
| 1777876662 | 21.67° C | 47% | 999.1 hPa | 0 mm | - | - | - |
| 1777876062 | 21.67° C | 46% | 999.1 hPa | 0 mm | - | - | - |
| 1777875462 | 21.67° C | 46% | 999.2 hPa | 0 mm | - | - | - |
| 1777874862 | 21.67° C | 45% | 999 hPa | 0 mm | - | - | - |
| 1777874262 | 21.67° C | 44% | 999 hPa | 0 mm | - | - | - |
| 1777873662 | 21.67° C | 44% | 999.1 hPa | 0 mm | - | - | - |
| 1777873061 | 21.67° C | 44% | 999.1 hPa | 0 mm | - | - | - |
| 1777872461 | 21.67° C | 45% | 998.6 hPa | 0 mm | - | - | - |
| 1777871863 | 22.22° C | 46% | 998.4 hPa | 0 mm | - | - | - |
* Rain latest hour (hover to see other rain measurements)
** Current wind speed in m/s (hover to see current wind gust speed)